Clearfield, PA

9:02 PM EDT on April 24, 2018 (GMT -0400)
Clearfield-Lawrence

Weather History for KFIG - January, 2014

Change the Weather History Date:

Saturday, January 11, 2014

  Actual Average (KDUJ) Record (KDUJ)
Temperature  
Mean Temperature 39 °F -  
Max Temperature 46 °F 27 °F 56 °F (1975)
Min Temperature 32 °F 14 °F -11 °F (1982)
Degree Days  
Heating Degree Days 26    
Moisture  
Dew Point 39 °F    
Average Humidity 96    
Maximum Humidity 100    
Minimum Humidity 70    
Precipitation  
Precipitation 0.25 in - - ()
Sea Level Pressure  
Sea Level Pressure 29.61 in    
Wind  
Wind Speed 7 mph (NW)    
Max Wind Speed 21 mph    
Max Gust Speed 33 mph    
Visibility 3 miles    
Events Fog , Rain , Thunderstorm    
Averages and records for this station are not official NWS values.
T = Trace of Precipitation, MM = Missing Value Source: NWS Daily Summary

Daily Weather History Graph

Daily Weather History Graph

Search for Another Location

Airport or City:

Astronomy

Jan. 11, 2014 Rise Set
Actual Time 7:37 AM EST 5:05 PM EST
Civil Twilight 7:07 AM EST 5:36 PM EST
Nautical Twilight 6:33 AM EST 6:10 PM EST
Astronomical Twilight 6:00 AM EST 6:43 PM EST
Moon 1:48 PM EST (1/11) 3:40 AM EST (1/11)
Length of Visible Light 10h 28m
Length of Day
9h 27m
Waxing Gibbous, 83% of the Moon is Illuminated
Jan 11
Waxing Gibbous
Jan 15
Full
Jan 24
Last Quarter
Jan 30
New
Feb 6
First Quarter

Hourly Weather History & Observations

Time (EST) Temp. Windchill Dew Point Humidity Pressure Visibility Wind Dir Wind Speed Gust Speed Precip Events Conditions
12:03 AM 32.0 °F 26.4 °F 32.0 °F 100% 30.01 in 2.5 mi NNE 5.8 mph - N/A   Overcast
12:54 AM 33.1 °F 28.7 °F 32.0 °F 96% 30.01 in 2.0 mi NNE 4.6 mph - N/A   Overcast
1:02 AM 33.1 °F 28.7 °F 33.1 °F 100% 29.96 in 1.8 mi NE 4.6 mph - N/A   Overcast
1:24 AM 33.1 °F 26.9 °F 33.1 °F 100% 29.94 in 1.2 mi NE 6.9 mph - N/A   Overcast
1:51 AM 33.8 °F 27.7 °F 33.8 °F 100% 29.92 in 0.8 mi NNE 6.9 mph - N/A   Overcast
1:54 AM 33.1 °F 26.9 °F 33.1 °F 100% 29.97 in 0.5 mi NNE 6.9 mph - N/A Fog Fog
2:02 AM 33.1 °F 26.9 °F 33.1 °F 100% 29.92 in 0.5 mi NNE 6.9 mph - N/A Fog Fog
2:54 AM 34.0 °F 28.0 °F 34.0 °F 100% 29.94 in 0.2 mi NNE 6.9 mph - N/A Fog Fog
3:22 AM 34.0 °F 28.8 °F 34.0 °F 100% 29.88 in 0.2 mi North 5.8 mph - N/A Fog Fog
3:33 AM 34.0 °F 26.6 °F 34.0 °F 100% 29.86 in 0.2 mi North 9.2 mph - N/A Fog Fog
3:54 AM 34.0 °F 28.0 °F 34.0 °F 100% 29.88 in 0.2 mi North 6.9 mph - N/A Fog Fog
4:54 AM 35.1 °F 29.3 °F 35.1 °F 100% 29.83 in 0.2 mi North 6.9 mph - N/A Fog Fog
5:54 AM 37.0 °F 31.6 °F 37.0 °F 100% 29.79 in 0.2 mi North 6.9 mph - N/A Fog Fog
6:54 AM 37.0 °F 30.4 °F 37.0 °F 100% 29.73 in 0.2 mi North 9.2 mph - N/A Fog Fog
7:10 AM 37.9 °F 32.1 °F 37.9 °F 100% 29.69 in 0.5 mi North 8.1 mph - N/A Fog Fog
7:54 AM 39.0 °F 34.0 °F 39.0 °F 100% 29.68 in 0.5 mi North 6.9 mph - N/A Fog Fog
8:05 AM 39.0 °F 33.4 °F 39.0 °F 100% 29.63 in 0.2 mi North 8.1 mph - N/A Fog Fog
8:45 AM 39.9 °F 34.5 °F 39.9 °F 100% 29.61 in 0.5 mi North 8.1 mph - N/A Fog Fog
8:54 AM 39.9 °F 35.8 °F 39.9 °F 100% 29.64 in 0.5 mi North 5.8 mph - N/A Fog Fog
9:11 AM 39.9 °F 35.8 °F 39.9 °F 100% 29.60 in 0.2 mi North 5.8 mph - N/A Fog Fog
9:32 AM 41.0 °F - 41.0 °F 100% 29.60 in 0.5 mi Calm Calm - N/A Fog Fog
9:39 AM 42.1 °F 39.2 °F 42.1 °F 100% 29.60 in 0.5 mi Variable 4.6 mph - 0.02 in Fog , Rain , Thunderstorm Rain
9:48 AM 41.0 °F 36.4 °F 41.0 °F 100% 29.60 in 0.2 mi North 6.9 mph - 0.03 in Fog , Rain Light Rain
9:54 AM 42.1 °F 40.2 °F 42.1 °F 100% 29.64 in 0.2 mi Variable 3.5 mph - 0.03 in Fog , Rain Light Rain
10:01 AM 43.0 °F 39.5 °F 43.0 °F 100% 29.60 in 1.0 mi Variable 5.8 mph - 0.01 in Rain Light Rain
10:13 AM 45.0 °F 37.9 °F 45.0 °F 100% 29.60 in 3.0 mi SSW 16.1 mph 23.0 mph 0.02 in Rain Light Rain
10:54 AM 44.1 °F 41.5 °F 44.1 °F 100% 29.60 in 2.0 mi SSE 4.6 mph - 0.03 in Rain Light Rain
11:17 AM 44.1 °F 40.8 °F 44.1 °F 100% 29.56 in 4.0 mi SSW 5.8 mph - 0.02 in Rain Rain
11:28 AM 44.1 °F 42.5 °F 44.1 °F 100% 29.56 in 1.8 mi South 3.5 mph - 0.04 in Rain Rain
11:43 AM 44.1 °F 42.5 °F 44.1 °F 100% 29.55 in 0.5 mi SSW 3.5 mph - 0.08 in Fog , Rain Rain
11:50 AM 44.6 °F - 44.6 °F 100% 29.53 in 0.2 mi Calm Calm - 0.10 in Fog , Rain Rain
11:54 AM 44.1 °F - 44.1 °F 100% 29.56 in 0.2 mi Calm Calm - 0.11 in Fog , Rain Rain
12:25 PM 43.0 °F 40.3 °F 43.0 °F 100% 29.49 in 0.2 mi SSE 4.6 mph - 0.03 in Fog , Rain Light Rain
12:32 PM 43.0 °F 40.3 °F 43.0 °F 100% 29.48 in 0.2 mi SSE 4.6 mph - 0.04 in Fog , Rain Light Rain
12:40 PM 44.1 °F 42.5 °F 44.1 °F 100% 29.47 in 0.2 mi South 3.5 mph - 0.05 in Fog , Rain Light Rain
12:54 PM 44.1 °F 42.5 °F 44.1 °F 100% 29.49 in 1.2 mi SSW 3.5 mph - 0.05 in Rain Light Rain
12:59 PM 44.1 °F - 44.1 °F 100% 29.46 in 0.2 mi Calm Calm - 0.00 in Fog , Rain Light Rain
1:15 PM 44.1 °F 42.5 °F 44.1 °F 100% 29.45 in 0.5 mi SSW 3.5 mph - 0.00 in Fog , Rain Light Rain
1:18 PM 44.1 °F 42.5 °F 44.1 °F 100% 29.46 in 0.2 mi South 3.5 mph - 0.00 in Fog , Rain Light Rain
1:54 PM 41.0 °F 35.2 °F 41.0 °F 100% 29.40 in 0.2 mi NNW 9.2 mph - 0.01 in Fog Fog
2:29 PM 42.1 °F 39.2 °F 42.1 °F 100% 29.38 in 0.2 mi NW 4.6 mph - N/A Fog Fog
2:54 PM 41.0 °F 39.0 °F 41.0 °F 100% 29.40 in 0.2 mi North 3.5 mph - N/A Fog Fog
3:02 PM 42.1 °F 40.2 °F 42.1 °F 100% 29.37 in 0.2 mi NNW 3.5 mph - N/A Fog Fog
3:54 PM 43.0 °F 41.3 °F 43.0 °F 100% 29.41 in 0.2 mi South 3.5 mph - 0.00 in Fog , Rain Light Rain
4:08 PM 45.0 °F 42.6 °F 44.1 °F 97% 29.39 in 1.2 mi SW 4.6 mph - 0.00 in   Overcast
4:12 PM 45.0 °F 41.8 °F 45.0 °F 100% 29.38 in 3.0 mi SW 5.8 mph - 0.00 in   Overcast
4:28 PM 46.0 °F 43.1 °F 46.0 °F 100% 29.37 in 10.0 mi SW 5.8 mph - 0.00 in   Mostly Cloudy
4:54 PM 46.0 °F 42.5 °F 46.0 °F 100% 29.39 in 10.0 mi SW 6.9 mph - 0.00 in   Mostly Cloudy
5:54 PM 46.0 °F 41.9 °F 45.0 °F 96% 29.37 in 10.0 mi SSW 8.1 mph - N/A   Partly Cloudy
6:54 PM 43.0 °F 36.0 °F 39.9 °F 89% 29.42 in 10.0 mi West 13.8 mph 28.8 mph 0.02 in Rain Light Rain
7:54 PM 43.0 °F 34.5 °F 36.0 °F 76% 29.45 in 10.0 mi West 19.6 mph 33.4 mph 0.00 in   Overcast
8:40 PM 42.1 °F 35.2 °F 36.0 °F 79% 29.46 in 10.0 mi WSW 12.7 mph 20.7 mph N/A   Overcast
8:54 PM 41.0 °F 31.6 °F 35.1 °F 79% 29.49 in 10.0 mi West 20.7 mph 28.8 mph N/A   Overcast
9:17 PM 39.9 °F 31.1 °F 32.0 °F 73% 29.49 in 10.0 mi West 17.3 mph 26.5 mph N/A   Overcast
9:54 PM 39.0 °F 31.0 °F 30.0 °F 70% 29.54 in 10.0 mi West 13.8 mph 27.6 mph N/A   Overcast
10:19 PM 37.9 °F 29.2 °F 30.9 °F 76% 29.52 in 10.0 mi WSW 15.0 mph 23.0 mph N/A   Overcast
10:54 PM 37.9 °F 30.5 °F 30.9 °F 76% 29.56 in 10.0 mi WSW 11.5 mph 18.4 mph N/A   Overcast
11:54 PM 36.0 °F 28.0 °F 32.0 °F 86% 29.58 in 10.0 mi West 11.5 mph 18.4 mph 0.00 in Rain Light Rain